| time (UTC) | temp F | wind direction | speed MPH | gust MPH | rain 1hr in | rain 24hr in | rain mn in | humidity % | barometer mb |
| 20260510213003 | 41 | 160 | 1.0 | 2.0 | 0.00 | 0.00 | 0.00 | 73 | 1015.1 |
| 20260510210005 | 43 | 102 | 1.0 | 2.0 | 0.00 | 0.00 | 0.00 | 69 | 1015.1 |
| 20260510204503 | 44 | 0 | 0.0 | 3.0 | 0.00 | 0.00 | 0.00 | 66 | 1015.1 |
| 20260510203004 | 45 | 54 | 1.0 | 2.0 | 0.00 | 0.00 | 0.00 | 65 | 1015.2 |
| 20260510200004 | 47 | 38 | 1.0 | 3.0 | 0.00 | 0.00 | 0.00 | 61 | 1015.1 |
| 20260510193004 | 50 | 42 | 2.0 | 7.0 | 0.00 | 0.00 | 0.00 | 55 | 1015.3 |
| 20260510191504 | 51 | 38 | 2.0 | 5.0 | 0.00 | 0.00 | 0.00 | 53 | 1015.3 |
| 20260510190005 | 51 | 24 | 2.0 | 6.0 | 0.00 | 0.00 | 0.00 | 52 | 1015.4 |
| 20260510184504 | 52 | 4 | 2.0 | 8.0 | 0.00 | 0.00 | 0.00 | 51 | 1015.4 |
| 20260510183003 | 52 | 19 | 2.0 | 8.0 | 0.00 | 0.00 | 0.00 | 50 | 1015.6 |
| 20260510181504 | 53 | 359 | 3.0 | 9.0 | 0.00 | 0.00 | 0.00 | 49 | 1015.6 |
| 20260510180005 | 53 | 25 | 2.0 | 8.0 | 0.00 | 0.00 | 0.00 | 51 | 1015.5 |
| 20260510174504 | 53 | 23 | 2.0 | 8.0 | 0.00 | 0.00 | 0.00 | 50 | 1015.5 |
| 20260510173003 | 54 | 21 | 3.0 | 9.0 | 0.00 | 0.00 | 0.00 | 49 | 1015.6 |
| 20260510171503 | 53 | 2 | 3.0 | 9.0 | 0.00 | 0.00 | 0.00 | 51 | 1015.6 |
| 20260510170004 | 54 | 12 | 4.0 | 10.0 | 0.00 | 0.00 | 0.00 | 47 | 1016.0 |
| 20260510164503 | 54 | 3 | 4.0 | 10.0 | 0.00 | 0.00 | 0.00 | 48 | 1016.1 |
| 20260510163004 | 54 | 357 | 5.0 | 11.0 | 0.00 | 0.00 | 0.00 | 48 | 1016.3 |
| 20260510161504 | 54 | 7 | 5.0 | 12.0 | 0.00 | 0.00 | 0.00 | 49 | 1016.5 |
| 20260510160004 | 56 | 354 | 6.0 | 13.0 | 0.00 | 0.00 | 0.00 | 47 | 1016.7 |
| 20260510154504 | 56 | 26 | 3.0 | 9.0 | 0.00 | 0.00 | 0.00 | 47 | 1016.8 |
| 20260510153004 | 56 | 357 | 4.0 | 12.0 | 0.00 | 0.00 | 0.00 | 46 | 1016.9 |
| 20260510151504 | 58 | 10 | 4.0 | 11.0 | 0.00 | 0.00 | 0.00 | 48 | 1017.0 |
| 20260510150005 | 56 | 9 | 4.0 | 11.0 | 0.00 | 0.00 | 0.00 | 46 | 1017.1 |
| 20260510143004 | 57 | 4 | 4.0 | 15.0 | 0.00 | 0.00 | 0.00 | 48 | 1017.4 |
| 20260510141503 | 57 | 16 | 3.0 | 9.0 | 0.00 | 0.00 | 0.00 | 48 | 1017.4 |
| 20260510134504 | 58 | 8 | 4.0 | 10.0 | 0.00 | 0.00 | 0.00 | 47 | 1017.7 |
| 20260510133003 | 58 | 15 | 4.0 | 12.0 | 0.00 | 0.00 | 0.00 | 51 | 1017.9 |
| 20260510131504 | 56 | 357 | 5.0 | 12.0 | 0.00 | 0.00 | 0.00 | 50 | 1018.1 |
| 20260510130004 | 59 | 2 | 5.0 | 15.0 | 0.00 | 0.00 | 0.00 | 45 | 1018.2 |
| 20260510124503 | 59 | 32 | 4.0 | 14.0 | 0.00 | 0.00 | 0.00 | 49 | 1018.4 |
| 20260510123004 | 60 | 43 | 4.0 | 12.0 | 0.00 | 0.00 | 0.00 | 49 | 1018.4 |
| 20260510121504 | 58 | 31 | 4.0 | 12.0 | 0.00 | 0.00 | 0.00 | 53 | 1018.5 |
| 20260510120003 | 56 | 36 | 3.0 | 9.0 | 0.00 | 0.00 | 0.00 | 54 | 1018.8 |
| 20260510113003 | 54 | 17 | 4.0 | 15.0 | 0.00 | 0.00 | 0.00 | 60 | 1019.2 |
| 20260510111503 | 53 | 1 | 5.0 | 14.0 | 0.00 | 0.00 | 0.00 | 62 | 1019.5 |
| 20260510110004 | 53 | 20 | 4.0 | 10.0 | 0.00 | 0.00 | 0.00 | 63 | 1019.5 |
| 20260510104502 | 53 | 8 | 4.0 | 13.0 | 0.00 | 0.00 | 0.00 | 65 | 1019.7 |
| 20260510101502 | 53 | 355 | 6.0 | 18.0 | 0.00 | 0.00 | 0.00 | 66 | 1019.8 |
| 20260510100004 | 53 | 41 | 4.0 | 9.0 | 0.00 | 0.00 | 0.00 | 67 | 1020.0 |
| 20260510094502 | 50 | 32 | 4.0 | 11.0 | 0.00 | 0.00 | 0.00 | 72 | 1020.2 |
| 20260510093002 | 49 | 7 | 4.0 | 13.0 | 0.00 | 0.00 | 0.00 | 73 | 1020.3 |
| 20260510090004 | 49 | 10 | 4.0 | 10.0 | 0.00 | 0.00 | 0.00 | 74 | 1020.5 |
| 20260510084502 | 48 | 19 | 4.0 | 11.0 | 0.00 | 0.00 | 0.00 | 75 | 1020.5 |
| 20260510083002 | 48 | 9 | 4.0 | 13.0 | 0.00 | 0.00 | 0.00 | 76 | 1020.4 |
| 20260510080004 | 48 | 10 | 4.0 | 10.0 | 0.00 | 0.00 | 0.00 | 77 | 1020.4 |
| 20260510074502 | 47 | 3 | 4.0 | 10.0 | 0.00 | 0.00 | 0.00 | 79 | 1020.3 |
| 20260510071502 | 45 | 10 | 3.0 | 11.0 | 0.00 | 0.00 | 0.00 | 81 | 1020.3 |
| 20260510070003 | 45 | 4 | 4.0 | 13.0 | 0.00 | 0.00 | 0.00 | 82 | 1020.3 |
| 20260510064503 | 45 | 2 | 4.0 | 11.0 | 0.00 | 0.00 | 0.00 | 83 | 1020.3 |
| 20260510063002 | 45 | 10 | 3.0 | 9.0 | 0.00 | 0.00 | 0.00 | 83 | 1020.3 |
| 20260510061502 | 45 | 3 | 4.0 | 10.0 | 0.00 | 0.01 | 0.00 | 84 | 1020.2 |
| 20260510060003 | 45 | 359 | 5.0 | 12.0 | 0.00 | 0.01 | 0.00 | 84 | 1020.2 |
| 20260510054503 | 45 | 7 | 4.0 | 11.0 | 0.00 | 0.01 | 0.00 | 85 | 1020.1 |
| 20260510053002 | 46 | 11 | 3.0 | 12.0 | 0.00 | 0.01 | 0.00 | 85 | 1020.1 |
| 20260510051502 | 46 | 13 | 3.0 | 12.0 | 0.00 | 0.01 | 0.00 | 86 | 1020.2 |
| 20260510050004 | 46 | 358 | 4.0 | 13.0 | 0.00 | 0.01 | 0.00 | 86 | 1020.1 |
| 20260510044503 | 46 | 16 | 3.0 | 7.0 | 0.00 | 0.01 | 0.00 | 86 | 1020.1 |
| 20260510043002 | 46 | 2 | 4.0 | 12.0 | 0.00 | 0.01 | 0.00 | 87 | 1020.0 |
| 20260510041502 | 46 | 355 | 5.0 | 12.0 | 0.00 | 0.01 | 0.00 | 87 | 1020.0 |
| 20260510040003 | 46 | 356 | 5.0 | 12.0 | 0.00 | 0.01 | 0.00 | 88 | 1020.1 |
| 20260510034503 | 46 | 2 | 4.0 | 10.0 | 0.00 | 0.01 | 0.00 | 88 | 1020.1 |
| 20260510033002 | 46 | 2 | 4.0 | 9.0 | 0.00 | 0.01 | 0.00 | 88 | 1020.2 |
| 20260510031503 | 46 | 11 | 3.0 | 11.0 | 0.00 | 0.01 | 0.00 | 89 | 1020.4 |
| 20260510030003 | 46 | 358 | 3.0 | 10.0 | 0.00 | 0.01 | 0.00 | 89 | 1020.4 |
| 20260510024503 | 46 | 5 | 4.0 | 11.0 | 0.00 | 0.01 | 0.00 | 89 | 1020.4 |
| 20260510023002 | 46 | 7 | 4.0 | 9.0 | 0.00 | 0.01 | 0.00 | 89 | 1020.5 |
| 20260510021503 | 46 | 15 | 3.0 | 9.0 | 0.00 | 0.01 | 0.00 | 89 | 1020.3 |
| 20260510014502 | 47 | 1 | 4.0 | 12.0 | 0.00 | 0.01 | 0.00 | 89 | 1020.7 |
| 20260510011502 | 47 | 23 | 4.0 | 12.0 | 0.00 | 0.01 | 0.00 | 89 | 1020.3 |
| 20260510010003 | 47 | 357 | 5.0 | 12.0 | 0.00 | 0.01 | 0.00 | 88 | 1020.2 |
| 20260510004502 | 47 | 356 | 5.0 | 14.0 | 0.00 | 0.01 | 0.00 | 87 | 1020.4 |
| 20260510003003 | 48 | 352 | 6.0 | 15.0 | 0.00 | 0.01 | 0.00 | 87 | 1020.4 |
| 20260510001502 | 48 | 354 | 5.0 | 13.0 | 0.00 | 0.01 | 0.00 | 87 | 1020.5 |
| 20260509234503 | 49 | 353 | 5.0 | 11.0 | 0.00 | 0.01 | 0.00 | 87 | 1020.5 |
| 20260509233002 | 49 | 356 | 4.0 | 11.0 | 0.00 | 0.01 | 0.00 | 86 | 1020.6 |
| 20260509231503 | 49 | 355 | 4.0 | 12.0 | 0.00 | 0.01 | 0.00 | 85 | 1020.4 |
| 20260509230005 | 49 | 357 | 4.0 | 11.0 | 0.00 | 0.01 | 0.00 | 85 | 1020.3 |
| 20260509224503 | 49 | 357 | 4.0 | 11.0 | 0.00 | 0.01 | 0.01 | 85 | 1020.3 |
| 20260509223002 | 49 | 6 | 3.0 | 8.0 | 0.00 | 0.01 | 0.01 | 85 | 1020.1 |
| 20260509221503 | 49 | 1 | 4.0 | 13.0 | 0.00 | 0.02 | 0.01 | 84 | 1020.1 |
| 20260509220003 | 49 | 357 | 4.0 | 11.0 | 0.00 | 0.02 | 0.01 | 85 | 1020.1 |
| 20260509214503 | 50 | 359 | 4.0 | 12.0 | 0.00 | 0.02 | 0.01 | 85 | 1020.0 |